Starlink 31683

operational
NORAD ID: 59573 Int'l Des: 2024-076 Owner: SPXS Country: US Constellation: starlink
LEOCIRCULAR

Starlink 31683について

説明を読み込み中...

リアルタイム位置

3D地球を読み込み中...

次回通過

高度履歴

Altitude vs Time

uPlot chart will show altitude changes over time

軌道要素

1 59573U 24076K 25307.16392716 .00004376 00000-0 16842-3 0 9994
2 59573 43.0006 3.4306 0000799 262.0910 97.9851 15.27585681 87153
Epoch: Nov 3, 2025 • Age: 36 hours

現在のステータス

高度 494.9 km
速度 7.62 km/s
衛星直下点 -41.01°S, 34.49°W
打ち上げ日 Apr 23, 2024
運用期間 1.5 years
タイプ internet

技術仕様

分類 Payload
質量 730.00 kg
乾燥質量 700.00 kg
総質量 730.00 kg
長さ 0.30 m
直径 4.10 m
スパン 29.00 m
形状 Box + pan
製造者 SPXS
バスタイプ Starlink V2M
フェーズステータス In Orbit
所有者/国 SPXS/US

大規模コンステレーション

Loading constellations...